FW7164 Weather Reports


time (UTC)temp
F
wind
direction
speed
knots
gust
knots
rain 1hr
in
rain 24hr
in
rain mn
in
humidity
%
barometer
mb
20260906224052 83 78 0.9 7.8 0.00 0.00 0.00 35 1003.7
20260906223546 83 111 1.7 7.8 0.00 0.00 0.00 35 1003.7
20260906223040 83 138 0.9 6.1 0.00 0.00 0.00 34 1003.9
20260906222534 83 159 2.6 5.2 0.00 0.00 0.00 34 1003.9
20260906222030 83 224 0.0 6.1 0.00 0.00 0.00 33 1003.9
20260906221531 83 86 2.6 6.1 0.00 0.00 0.00 34 1003.9
20260906221019 83 355 0.0 6.1 0.00 0.00 0.00 36 1003.9
20260906220514 83 128 0.0 7.0 0.00 0.00 0.00 33 1004.0
20260906220011 83 150 0.0 7.8 0.00 0.00 0.00 32 1004.1
20260906215500 84 154 3.5 7.8 0.00 0.00 0.00 35 1004.3
20260906215056 84 256 1.7 8.7 0.00 0.00 0.00 36 1004.3
20260906214553 83 151 0.9 7.0 0.00 0.00 0.00 36 1004.4
20260906214044 84 244 1.7 8.7 0.00 0.00 0.00 35 1004.5
20260906213541 85 87 1.7 7.0 0.00 0.00 0.00 35 1004.5
20260906213034 85 163 2.6 5.2 0.00 0.00 0.00 36 1004.7
20260906212528 85 169 2.6 7.8 0.00 0.00 0.00 36 1004.6
20260906212022 85 167 0.9 7.8 0.00 0.00 0.00 35 1004.6
20260906211517 85 163 1.7 6.1 0.00 0.00 0.00 35 1004.6
20260906211012 85 155 1.7 9.6 0.00 0.00 0.00 36 1004.6
20260906210506 84 164 3.5 9.6 0.00 0.00 0.00 36 1004.5
20260906210107 84 138 3.5 7.8 0.00 0.00 0.00 36 1004.6
20260906205557 83 126 2.6 7.0 0.00 0.00 0.00 36 1004.7
20260906205047 83 254 0.9 8.7 0.00 0.00 0.00 37 1004.8
20260906204549 83 167 0.9 8.7 0.00 0.00 0.00 37 1004.8
20260906204034 83 155 0.9 8.7 0.00 0.00 0.00 35 1005.1
20260906203529 84 157 1.7 10.4 0.00 0.00 0.00 35 1005.0
20260906203033 84 122 5.2 10.4 0.00 0.00 0.00 34 1005.0
20260906202516 85 66 3.5 7.8 0.00 0.00 0.00 35 1005.0
20260906202012 85 68 3.5 7.8 0.00 0.00 0.00 35 1005.0
20260906201507 85 166 3.5 8.7 0.00 0.00 0.00 34 1005.2
20260906201102 85 151 4.3 10.4 0.00 0.00 0.00 34 1005.2
20260906200555 84 158 4.3 10.4 0.00 0.00 0.00 34 1005.3
20260906200049 83 164 2.6 10.4 0.00 0.00 0.00 35 1005.5
20260906195543 83 144 4.3 10.4 0.00 0.00 0.00 35 1005.4
20260906195042 84 190 4.3 8.7 0.00 0.00 0.00 33 1005.5
20260906194533 84 167 2.6 7.8 0.00 0.00 0.00 33 1005.5
20260906194026 84 156 3.5 7.8 0.00 0.00 0.00 33 1005.6
20260906193521 84 148 2.6 7.0 0.00 0.00 0.00 32 1005.6
20260906193015 84 279 0.9 7.0 0.00 0.00 0.00 31 1005.6
20260906192508 85 136 2.6 7.8 0.00 0.00 0.00 32 1005.7
20260906192004 85 173 3.5 7.0 0.00 0.00 0.00 32 1005.8
20260906191604 85 96 0.9 8.7 0.00 0.00 0.00 32 1005.8
20260906191052 85 169 5.2 8.7 0.00 0.00 0.00 31 1006.0
20260906190549 86 95 3.5 7.0 0.00 0.00 0.00 30 1005.9
20260906190037 85 171 0.9 7.8 0.00 0.00 0.00 29 1005.9
20260906185530 85 11 1.7 6.1 0.00 0.00 0.00 28 1006.1
20260906185024 85 150 3.5 6.1 0.00 0.00 0.00 29 1006.2
20260906184518 84 235 1.7 7.0 0.00 0.00 0.00 30 1006.3
20260906184013 84 169 0.9 7.0 0.00 0.00 0.00 30 1006.5
20260906183506 84 165 3.5 7.0 0.00 0.00 0.00 31 1006.5
20260906183110 84 175 0.0 4.3 0.00 0.00 0.00 32 1006.7
20260906182556 84 240 0.0 2.6 0.00 0.00 0.00 33 1006.7
20260906182051 83 238 0.0 9.6 0.00 0.00 0.00 32 1006.9
20260906181547 83 214 0.9 9.6 0.00 0.00 0.00 33 1007.2
20260906181036 82 163 0.9 7.0 0.00 0.00 0.00 34 1007.2
20260906180531 83 153 0.9 6.1 0.00 0.00 0.00 34 1007.5
20260906180029 83 263 1.7 6.1 0.00 0.00 0.00 32 1007.6
20260906175522 83 155 1.7 6.1 0.00 0.00 0.00 33 1007.7
20260906175012 83 223 0.9 6.1 0.00 0.00 0.00 34 1007.9
20260906174505 82 223 0.0 4.3 0.00 0.00 0.00 35 1008.1
20260906174101 82 227 0.9 4.3 0.00 0.00 0.00 34 1008.4
20260906173555 82 165 0.0 4.3 0.00 0.00 0.00 35 1008.5
20260906173045 82 271 0.0 5.2 0.00 0.00 0.00 35 1008.5
20260906172536 81 140 0.9 7.8 0.00 0.00 0.00 36 1008.7
20260906172029 81 142 1.7 7.8 0.00 0.00 0.00 37 1008.8
20260906171524 81 215 0.0 0.0 0.00 0.00 0.00 36 1008.9
20260906171018 80 251 0.0 4.3 0.00 0.00 0.00 37 1009.1
20260906170511 80 128 0.0 4.3 0.00 0.00 0.00 37 1009.2
20260906170007 79 203 0.0 4.3 0.00 0.00 0.00 38 1009.4
20260906165559 78 92 0.9 5.2 0.00 0.00 0.00 38 1009.4
20260906165053 78 222 0.0 5.2 0.00 0.00 0.00 38 1009.5
20260906164547 77 111 1.7 3.5 0.00 0.00 0.00 39 1009.5
20260906164043 77 167 0.9 4.3 0.00 0.00 0.00 38 1009.6
20260906163535 76 117 0.0 0.0 0.00 0.00 0.00 41 1009.6
20260906163029 75 185 0.0 4.3 0.00 0.00 0.00 44 1009.6
20260906162522 75 156 0.0 5.2 0.00 0.00 0.00 44 1009.6
20260906162020 74 156 0.0 5.2 0.00 0.00 0.00 45 1009.5
20260906161526 74 186 0.0 2.6 0.00 0.00 0.00 45 1009.5
20260906161005 73 283 0.0 0.0 0.00 0.00 0.00 47 1009.6
20260906160600 72 223 0.0 0.0 0.00 0.00 0.00 47 1009.6
20260906160054 72 221 0.0 0.0 0.00 0.00 0.00 50 1009.6
20260906155550 71 234 0.0 0.0 0.00 0.00 0.00 49 1009.7
20260906155038 70 244 0.0 0.0 0.00 0.00 0.00 50 1009.6
20260906154530 69 127 0.0 0.0 0.00 0.00 0.00 51 1009.7
20260906154030 69 122 0.0 0.0 0.00 0.00 0.00 51 1009.7
20260906153518 68 136 0.0 0.0 0.00 0.00 0.00 53 1009.9
20260906153012 68 227 0.0 0.0 0.00 0.00 0.00 54 1009.9
20260906152506 67 225 0.0 0.0 0.00 0.00 0.00 56 1009.9
20260906152054 66 360 0.0 0.0 0.00 0.00 0.00 58 1009.9
20260906151548 65 360 0.0 0.0 0.00 0.00 0.00 59 1009.9
20260906151043 65 360 0.0 3.5 0.00 0.00 0.00 59 1009.9
20260906150536 64 360 0.0 3.5 0.00 0.00 0.00 61 1010.0
20260906150035 63 360 0.0 2.6 0.00 0.00 0.00 63 1010.1
20260906145523 62 126 0.0 0.0 0.00 0.00 0.00 65 1010.2
20260906145017 61 126 0.0 2.6 0.00 0.00 0.00 66 1010.2
20260906144517 61 125 0.0 0.0 0.00 0.00 0.00 66 1010.1
20260906144005 61 120 0.0 2.6 0.00 0.00 0.00 66 1010.1
20260906143601 60 120 0.0 2.6 0.00 0.00 0.00 68 1010.2
20260906143056 60 113 0.0 1.7 0.00 0.00 0.00 68 1010.3
20260906142529 59 82 0.0 0.0 0.00 0.00 0.00 69 1010.3
20260906142025 59 82 0.0 0.0 0.00 0.00 0.00 69 1010.3
20260906141520 59 82 0.0 0.0 0.00 0.00 0.00 68 1010.4
20260906141015 59 82 0.0 0.0 0.00 0.00 0.00 70 1010.4
20260906140510 58 82 0.0 0.0 0.00 0.00 0.00 71 1010.5
20260906140005 58 81 0.0 0.0 0.00 0.00 0.00 72 1010.5
20260906135559 58 22 0.0 0.0 0.00 0.00 0.00 72 1010.5
20260906135054 58 22 0.0 0.0 0.00 0.00 0.00 73 1010.4
20260906134550 57 22 0.0 0.0 0.00 0.00 0.00 74 1010.5
20260906134044 56 22 0.0 0.0 0.00 0.00 0.00 74 1010.7
20260906133540 56 22 0.0 0.0 0.00 0.00 0.00 76 1010.6
20260906133041 54 22 0.0 0.0 0.00 0.00 0.00 77 1010.7
20260906132527 53 22 0.0 0.0 0.00 0.00 0.00 79 1010.7
20260906132021 52 22 0.0 0.0 0.00 0.00 0.00 81 1010.6
20260906131516 52 22 0.0 0.0 0.00 0.00 0.00 82 1010.5
20260906131010 51 22 0.0 0.0 0.00 0.00 0.00 80 1010.4
20260906130506 51 22 0.0 0.0 0.00 0.00 0.00 80 1010.3
20260906130000 52 22 0.0 0.0 0.00 0.00 0.00 80 1010.3
20260906125601 52 22 0.0 0.0 0.00 0.00 0.00 80 1010.2
20260906125052 52 22 0.0 0.0 0.00 0.00 0.00 80 1010.3
20260906124546 52 22 0.0 0.0 0.00 0.00 0.00 80 1010.3
20260906124042 52 22 0.0 0.0 0.00 0.00 0.00 80 1010.2
20260906123538 51 72 0.0 0.0 0.00 0.00 0.00 81 1010.1
20260906123032 51 72 0.0 0.0 0.00 0.00 0.00 80 1010.2
20260906122517 51 72 0.0 0.0 0.00 0.00 0.00 80 1010.3
20260906122010 52 72 0.0 0.0 0.00 0.00 0.00 79 1010.3
20260906121514 52 72 0.0 0.0 0.00 0.00 0.00 79 1010.3
20260906121100 52 72 0.0 0.0 0.00 0.00 0.00 78 1010.3
20260906120557 52 72 0.0 0.0 0.00 0.00 0.00 78 1010.4
20260906120048 53 72 0.0 0.0 0.00 0.00 0.00 77 1010.4
20260906115543 53 72 0.0 0.0 0.00 0.00 0.00 77 1010.3
20260906115037 53 72 0.0 0.0 0.00 0.00 0.00 76 1010.4
20260906114533 53 72 0.0 0.0 0.00 0.00 0.00 77 1010.3
20260906114024 53 72 0.0 0.0 0.00 0.00 0.00 76 1010.1
20260906113521 53 72 0.0 0.0 0.00 0.00 0.00 76 1010.2
20260906113016 54 72 0.0 0.0 0.00 0.00 0.00 76 1010.1
20260906112506 54 72 0.0 0.0 0.00 0.00 0.00 76 1010.2
20260906112002 54 72 0.0 2.6 0.00 0.00 0.00 76 1010.2
20260906111556 54 72 0.0 2.6 0.00 0.00 0.00 76 1010.1
20260906111049 54 23 0.0 0.0 0.00 0.00 0.00 76 1010.1
20260906110544 54 23 0.0 0.0 0.00 0.00 0.00 75 1010.1
20260906110038 54 24 0.0 0.0 0.00 0.00 0.00 75 1010.0
20260906105531 54 24 0.0 0.0 0.00 0.00 0.00 75 1010.0
20260906105026 55 24 0.0 0.0 0.00 0.00 0.00 75 1010.0
20260906104520 55 24 0.0 0.0 0.00 0.00 0.00 74 1010.0
20260906104015 55 24 0.0 0.0 0.00 0.00 0.00 74 1010.0
20260906103509 55 24 0.0 0.0 0.00 0.00 0.00 74 1009.9
20260906103011 55 24 0.0 0.0 0.00 0.00 0.00 74 1009.9
20260906102557 55 24 0.0 0.0 0.00 0.00 0.00 73 1009.9
20260906102053 56 24 0.0 0.0 0.00 0.00 0.00 72 1009.9
20260906101547 56 24 0.0 0.0 0.00 0.00 0.00 71 1009.8
20260906101039 56 24 0.0 0.0 0.00 0.00 0.00 71 1009.8
20260906100534 57 24 0.0 0.0 0.00 0.00 0.00 71 1009.8
20260906100033 57 24 0.0 0.0 0.00 0.00 0.00 70 1009.8
20260906095525 57 56 0.0 0.0 0.00 0.00 0.00 70 1009.8
20260906095015 58 38 0.0 0.0 0.00 0.00 0.00 69 1009.7
20260906094509 58 38 0.0 0.0 0.00 0.00 0.00 69 1009.8
20260906094106 58 28 0.0 0.0 0.00 0.00 0.00 69 1009.8
20260906093601 58 26 0.0 0.0 0.00 0.00 0.00 69 1009.8
20260906093054 58 43 0.0 0.0 0.00 0.00 0.00 69 1009.8
20260906092549 58 32 0.0 0.0 0.00 0.00 0.00 69 1009.8
20260906092044 58 26 0.0 0.0 0.00 0.00 0.00 69 1009.8
20260906091538 58 56 0.0 0.0 0.00 0.00 0.00 69 1009.8
20260906091033 58 36 0.0 0.0 0.00 0.00 0.00 68 1009.7
20260906090527 58 39 0.0 0.0 0.00 0.00 0.00 69 1009.7
20260906090025 59 25 0.0 0.0 0.00 0.00 0.00 68 1009.8
20260906085517 59 19 0.0 0.0 0.00 0.00 0.00 68 1009.8
20260906085011 59 21 0.0 0.0 0.00 0.00 0.00 68 1009.8
20260906084607 59 24 0.0 0.0 0.00 0.00 0.00 69 1009.8
20260906084104 58 26 0.0 0.0 0.00 0.00 0.00 70 1009.7
20260906083556 58 22 0.0 0.0 0.00 0.00 0.00 70 1009.7
20260906083049 58 22 0.0 0.0 0.00 0.00 0.00 70 1009.7
20260906082548 58 13 0.0 0.0 0.00 0.00 0.00 70 1009.8
20260906082039 58 11 0.0 0.0 0.00 0.00 0.00 70 1009.8
20260906081533 58 24 0.0 0.0 0.00 0.00 0.00 70 1009.9
20260906081027 58 44 0.0 0.0 0.00 0.00 0.00 70 1009.9
20260906080608 58 355 0.0 0.0 0.00 0.00 0.00 71 1010.0
20260906080103 58 37 0.0 0.0 0.00 0.00 0.00 71 1010.1
20260906075555 58 40 0.0 0.0 0.00 0.00 0.00 70 1010.2
20260906075050 58 31 0.0 0.0 0.00 0.00 0.00 70 1010.0
20260906074546 58 27 0.0 0.0 0.00 0.00 0.00 71 1010.0
20260906074040 58 360 0.0 0.0 0.00 0.00 0.00 71 1010.1
20260906073536 59 38 0.0 0.0 0.00 0.00 0.00 71 1010.1
20260906073028 59 38 0.0 0.0 0.00 0.00 0.00 71 1010.2
20260906072522 59 44 0.0 0.0 0.00 0.00 0.00 71 1010.2
20260906072016 59 35 0.0 0.0 0.00 0.00 0.00 71 1010.2
20260906071515 59 31 0.0 0.0 0.00 0.00 0.00 72 1010.3
20260906071004 59 18 0.0 0.0 0.00 0.00 0.00 72 1010.3
20260906070559 59 29 0.0 0.0 0.00 0.00 0.00 72 1010.3
20260906070053 59 46 0.0 0.0 0.00 0.00 0.00 71 1010.2
20260906065546 59 9 0.0 0.0 0.00 0.00 0.00 71 1010.1
20260906065040 59 9 0.0 0.0 0.00 0.00 0.00 71 1010.1
20260906064534 60 17 0.0 0.0 0.00 0.00 0.00 71 1010.1
20260906064028 60 32 0.0 0.0 0.00 0.00 0.00 71 1010.1
20260906063523 60 28 0.0 0.0 0.00 0.00 0.00 71 1010.1
20260906063018 60 33 0.0 0.0 0.00 0.00 0.00 71 1010.2
20260906062516 60 25 0.0 0.0 0.00 0.00 0.00 71 1010.1
20260906062007 60 16 0.0 0.0 0.00 0.00 0.00 71 1010.2
20260906061601 60 24 0.0 0.0 0.00 0.00 0.00 71 1010.1
20260906061055 61 40 0.0 0.0 0.00 0.00 0.00 70 1010.1
20260906060549 61 46 0.0 0.0 0.00 0.00 0.00 69 1010.1
20260906060054 61 25 0.0 0.0 0.00 0.00 0.00 68 1010.2
20260906055537 62 9 0.0 0.0 0.00 0.00 0.00 68 1010.2
20260906055032 62 27 0.0 0.0 0.00 0.00 0.00 66 1010.2
20260906054526 62 17 0.0 0.0 0.00 0.00 0.00 63 1010.4
20260906054022 62 15 0.0 0.0 0.00 0.00 0.00 63 1010.4
20260906053516 62 15 0.0 0.0 0.00 0.00 0.00 62 1010.3
20260906053011 62 15 0.0 0.0 0.00 0.00 0.00 63 1010.3
20260906052507 63 58 0.0 4.3 0.00 0.00 0.00 64 1010.4
20260906052052 63 74 0.0 4.3 0.00 0.00 0.00 64 1010.4
20260906051546 63 74 0.0 4.3 0.00 0.00 0.00 65 1010.4
20260906051042 63 45 0.0 0.0 0.00 0.00 0.00 64 1010.5
20260906050536 64 38 0.0 0.0 0.00 0.00 0.00 64 1010.7
20260906050033 64 19 0.0 0.0 0.00 0.00 0.00 65 1010.6
20260906045527 64 48 0.0 0.0 0.00 0.00 0.00 64 1010.7
20260906045020 65 39 0.0 0.0 0.00 0.00 0.00 63 1010.8
20260906044518 65 25 0.0 3.5 0.00 0.00 0.00 62 1010.8
20260906044012 66 24 0.0 3.5 0.00 0.00 0.00 60 1011.0
20260906043507 66 28 0.0 0.0 0.00 0.00 0.00 59 1010.8
20260906043101 67 15 0.0 0.0 0.00 0.00 0.00 56 1010.9
20260906042556 67 63 0.0 4.3 0.00 0.00 0.00 56 1010.9
20260906042050 67 317 0.0 4.3 0.00 0.00 0.00 57 1011.0
20260906041544 68 294 0.0 1.7 0.00 0.00 0.00 56 1010.9
20260906041040 68 277 0.0 3.5 0.00 0.00 0.00 54 1010.9
20260906040535 67 5 0.0 3.5 0.00 0.00 0.00 53 1010.8
20260906040026 67 134 0.0 0.0 0.00 0.00 0.00 50 1010.4
20260906035521 66 84 0.0 0.0 0.00 0.00 0.00 50 1010.2
20260906035017 66 84 0.0 0.0 0.00 0.00 0.00 52 1009.9
20260906034515 66 84 0.0 0.0 0.00 0.00 0.00 51 1009.8
20260906034006 66 74 0.0 0.0 0.00 0.00 0.00 50 1009.6
20260906033542 65 82 0.0 0.0 0.00 0.00 0.00 51 1009.5
20260906033040 65 297 0.0 0.0 0.00 0.00 0.00 51 1009.3
20260906032532 65 297 0.0 0.0 0.00 0.00 0.00 50 1009.1
20260906032027 66 297 0.0 0.0 0.00 0.00 0.00 50 1009.0
20260906031528 66 297 0.0 0.0 0.00 0.00 0.00 49 1008.9
20260906031017 66 297 0.0 0.0 0.00 0.00 0.00 49 1008.9
20260906030513 67 297 0.0 0.0 0.00 0.00 0.00 49 1008.7
20260906030006 67 297 0.0 0.0 0.00 0.00 0.00 49 1008.7
20260906025601 67 297 0.0 0.0 0.00 0.00 0.00 48 1008.4
20260906025058 67 351 0.0 0.0 0.00 0.00 0.00 47 1008.3
20260906024547 67 28 0.0 0.0 0.00 0.00 0.00 47 1008.3
20260906024038 68 28 0.0 0.9 0.00 0.00 0.00 48 1008.2
20260906023533 68 55 0.0 0.9 0.00 0.00 0.00 47 1008.2
20260906023029 68 40 0.0 0.0 0.00 0.00 0.00 46 1008.2
20260906022521 69 40 0.0 0.0 0.00 0.00 0.00 45 1008.2
20260906022016 69 40 0.0 0.0 0.00 0.00 0.00 45 1008.1
20260906021512 69 40 0.0 0.0 0.00 0.00 0.00 44 1008.0
20260906021107 70 40 0.0 0.0 0.00 0.00 0.00 44 1008.0
20260906020502 70 61 0.0 0.0 0.00 0.00 0.00 45 1007.8
20260906020058 70 360 0.0 0.0 0.00 0.00 0.00 44 1007.7
20260906015553 70 360 0.0 0.9 0.00 0.00 0.00 45 1007.8
20260906015033 70 50 0.0 0.9 0.00 0.00 0.00 45 1007.7
20260906014528 71 47 0.0 0.0 0.00 0.00 0.00 42 1007.7
20260906014022 72 27 0.0 0.0 0.00 0.00 0.00 42 1007.7
20260906013517 72 360 0.0 0.0 0.00 0.00 0.00 40 1007.6
20260906013013 73 360 0.0 0.0 0.00 0.00 0.00 39 1007.6
20260906012509 74 360 0.0 0.0 0.00 0.00 0.00 38 1007.5
20260906012003 75 360 0.0 0.0 0.00 0.00 0.00 37 1007.5
20260906011600 75 360 0.0 0.0 0.00 0.00 0.00 36 1007.5
20260906011052 76 360 0.0 0.0 0.00 0.00 0.00 35 1007.5
20260906010548 77 360 0.0 0.0 0.00 0.00 0.00 35 1007.4
20260906010056 77 360 0.0 0.0 0.00 0.00 0.00 34 1007.4
20260906005538 78 360 0.0 0.9 0.00 0.00 0.00 33 1007.5
20260906005035 78 360 0.0 0.9 0.00 0.00 0.00 33 1007.4
20260906004527 78 360 0.0 0.0 0.00 0.00 0.00 33 1007.5
20260906004022 78 360 0.0 0.0 0.00 0.00 0.00 33 1007.3
20260906003517 79 360 0.0 0.0 0.00 0.00 0.00 33 1007.2
20260906003013 79 360 0.0 0.0 0.00 0.00 0.00 32 1007.2
20260906002507 79 360 0.0 0.0 0.00 0.00 0.00 32 1007.2
20260906002003 79 360 0.0 0.0 0.00 0.00 0.00 31 1007.2
20260906001605 80 360 0.0 0.0 0.00 0.00 0.00 31 1007.2
20260906001053 80 360 0.0 0.0 0.00 0.00 0.00 31 1007.2
20260906000549 80 360 0.0 0.0 0.00 0.00 0.00 31 1007.2
20260906000044 80 360 0.0 0.0 0.00 0.00 0.00 31 1007.2
20260905235538 80 360 0.0 0.0 0.00 0.00 0.00 30 1007.1
20260905235035 80 360 0.0 1.7 0.00 0.00 0.00 30 1007.2
20260905234528 80 253 0.0 1.7 0.00 0.00 0.00 30 1007.1
20260905234024 81 211 0.0 2.6 0.00 0.00 0.00 30 1007.1
20260905233518 81 281 0.0 4.3 0.00 0.00 0.00 29 1007.1
20260905233015 81 157 0.0 6.1 0.00 0.00 0.00 29 1007.1
20260905232508 82 261 1.7 6.1 0.00 0.00 0.00 28 1007.0
20260905232001 82 113 1.7 7.0 0.00 0.00 0.00 28 1007.0
20260905231557 82 145 2.6 7.0 0.00 0.00 0.00 28 1007.0
20260905231047 82 148 0.0 4.3 0.00 0.00 0.00 28 1007.0
20260905230542 82 248 0.0 6.1 0.00 0.00 0.00 28 1007.0
20260905230039 82 169 0.9 6.1 0.00 0.00 0.00 28 1006.9
20260905225525 82 275 2.6 6.1 0.00 0.00 0.00 28 1006.8
20260905225013 82 125 0.0 9.6 0.00 0.00 0.00 29 1006.9
20260905224509 83 152 3.5 9.6 0.00 0.00 0.00 28 1007.0